Tracking 30744 objects as of 24-Jun-2025
HD Live streaming from Space Station
objects crossing your sky now

STARLINK-6055

Track STARLINK-6055 now!
10-day predictions
STARLINK-6055 is classified as:


NORAD ID: 56467
Int'l Code: 2023-064V
Perigee: 577.1 km
Apogee: 581.2 km
Inclination: 70.0 °
Period: 96.1 minutes
Semi major axis: 6950 km
RCS: Unknown
Launch date: May 10, 2023
Source: United States (US)
Launch site: AIR FORCE WESTERN TEST RANGE (AFWTR)
Your satellite tracking list
Your tracking list is empty




NASA's NSSDC Master Catalog

Two Line Element Set (TLE):
1 56467U 23064V   25174.37663472  .00000247  00000-0  28520-4 0  9994
2 56467  70.0000  58.4035 0002943 269.1896  90.8926 14.98331032116894
Source of the keplerian elements: AFSPC